Poteau, OK

6:33 PM CDT on September 26, 2016 (GMT -0500)
Kerr

Weather History for KRKR - September, 2013

Change the Weather History Date:

Saturday, September 14, 2013

  Actual Average (KFSM) Record (KFSM)
Temperature  
Mean Temperature 74 °F 75 °F  
Max Temperature 86 °F 86 °F 100 °F (2000)
Min Temperature 62 °F 63 °F 44 °F (1902)
Degree Days  
Heating Degree Days 0 0  
Month to date heating degree days 0  
Since 1 July heating degree days 0  
Cooling Degree Days 9 10  
Month to date cooling degree days 169  
Year to date cooling degree days 1864  
Growing Degree Days 24 (Base 50)    
Moisture  
Dew Point 59 °F    
Average Humidity 60    
Maximum Humidity 83    
Minimum Humidity 42    
Precipitation  
Precipitation 0.00 in 0.14 in 3.47 in (2005)
Month to date precipitation 1.80  
Year to date precipitation 31.16  
Sea Level Pressure  
Sea Level Pressure 30.02 in    
Wind  
Wind Speed 1 mph (ENE)    
Max Wind Speed 8 mph    
Max Gust Speed -    
Visibility 10 miles    
Events      
T = Trace of Precipitation, MM = Missing Value Source: NWS Daily Summary

Daily Weather History Graph

Daily Weather History Graph

Search for Another Location

Airport or City:

Trip Planner

Search our weather history database for the weather conditions in past years. The results will help you decide how hot, cold, wet, or windy it might be!

Date:

Astronomy

Sep. 14, 2013 Rise Set
Actual Time 7:00 AM CDT 7:26 PM CDT
Civil Twilight 6:35 AM CDT 7:51 PM CDT
Nautical Twilight 6:05 AM CDT 8:21 PM CDT
Astronomical Twilight 5:35 AM CDT 8:51 PM CDT
Moon 4:00 PM CDT (9/14) 1:42 AM CDT (9/14)
Length of Visible Light 13h 16m
Length of Day
12h 25m
Waxing Gibbous, 72% of the Moon is Illuminated
Sep 14
Waxing Gibbous
Sep 19
Full
Sep 26
Last Quarter
Oct 4
New
Oct 11
First Quarter

Hourly Weather History & Observations

Time (CDT) Temp. Heat Index Dew Point Humidity Pressure Visibility Wind Dir Wind Speed Gust Speed Precip Events Conditions
12:15 AM 71.6 °F - 59.0 °F 64% 30.01 in 10.0 mi Calm Calm - N/A   Unknown
12:35 AM 71.6 °F - 60.8 °F 69% 30.01 in 10.0 mi Calm Calm - N/A   Unknown
12:55 AM 68.0 °F - 60.8 °F 78% 30.01 in 10.0 mi Calm Calm - N/A   Unknown
1:15 AM 71.6 °F - 57.2 °F 60% 30.01 in 10.0 mi Calm Calm - N/A   Unknown
1:35 AM 71.6 °F - 57.2 °F 60% 30.01 in 10.0 mi Calm Calm - N/A   Unknown
1:55 AM 71.6 °F - 59.0 °F 64% 30.01 in 10.0 mi Calm Calm - N/A   Unknown
2:15 AM 69.8 °F - 59.0 °F 68% 30.01 in 10.0 mi Calm Calm - N/A   Unknown
2:35 AM 71.6 °F - 59.0 °F 64% 30.01 in 10.0 mi Calm Calm - N/A   Unknown
2:55 AM 71.6 °F - 59.0 °F 64% 30.02 in 10.0 mi Calm Calm - N/A   Unknown
3:15 AM 71.6 °F - 59.0 °F 64% 30.01 in 10.0 mi Calm Calm - N/A   Unknown
3:35 AM 71.6 °F - 59.0 °F 64% 30.01 in 10.0 mi Calm Calm - N/A   Unknown
3:55 AM 71.6 °F - 59.0 °F 64% 30.00 in 10.0 mi Calm Calm - N/A   Unknown
4:15 AM 71.6 °F - 59.0 °F 64% 30.00 in 10.0 mi Calm Calm - N/A   Unknown
4:35 AM 69.8 °F - 59.0 °F 68% 30.00 in 10.0 mi Calm Calm - N/A   Unknown
4:55 AM 68.0 °F - 59.0 °F 73% 30.00 in 10.0 mi Calm Calm - N/A   Unknown
5:15 AM 68.0 °F - 59.0 °F 73% 30.01 in 10.0 mi Calm Calm - N/A   Unknown
5:35 AM 68.0 °F - 59.0 °F 73% 30.02 in 10.0 mi Calm Calm - N/A   Unknown
5:55 AM 66.2 °F - 59.0 °F 78% 30.02 in 10.0 mi Calm Calm - N/A   Unknown
6:15 AM 64.4 °F - 57.2 °F 77% 30.03 in 10.0 mi Calm Calm - N/A   Unknown
6:35 AM 62.6 °F - 57.2 °F 82% 30.03 in 10.0 mi Calm Calm - N/A   Unknown
6:55 AM 62.6 °F - 57.2 °F 82% 30.04 in 10.0 mi North 3.5 mph - N/A   Unknown
7:15 AM 62.6 °F - 57.2 °F 82% 30.04 in 10.0 mi Calm Calm - N/A   Unknown
7:35 AM 62.6 °F - 57.2 °F 82% 30.05 in 10.0 mi Calm Calm - N/A   Unknown
7:55 AM 64.4 °F - 59.0 °F 83% 30.06 in 10.0 mi Calm Calm - N/A   Unknown
8:15 AM 66.2 °F - 59.0 °F 78% 30.06 in 10.0 mi North 3.5 mph - N/A   Unknown
8:35 AM 68.0 °F - 60.8 °F 78% 30.06 in 10.0 mi Calm Calm - N/A   Unknown
8:55 AM 71.6 °F - 60.8 °F 69% 30.06 in 10.0 mi Calm Calm - N/A   Unknown
9:15 AM 71.6 °F - 60.8 °F 69% 30.07 in 10.0 mi Calm Calm - N/A   Unknown
9:35 AM 73.4 °F - 59.0 °F 61% 30.07 in 10.0 mi East 6.9 mph - N/A   Unknown
9:55 AM 73.4 °F - 57.2 °F 57% 30.07 in 10.0 mi East 6.9 mph - N/A   Unknown
10:15 AM 77.0 °F - 57.2 °F 50% 30.07 in 10.0 mi ESE 8.1 mph - N/A   Unknown
10:35 AM 77.0 °F - 57.2 °F 50% 30.08 in 10.0 mi ESE 4.6 mph - N/A   Unknown
10:55 AM 77.0 °F - 55.4 °F 47% 30.07 in 10.0 mi East 5.8 mph - N/A   Unknown
11:15 AM 77.0 °F - 55.4 °F 47% 30.07 in 10.0 mi SE 3.5 mph - N/A   Unknown
11:35 AM 77.0 °F - 55.4 °F 47% 30.07 in 10.0 mi ESE 4.6 mph - N/A   Unknown
11:55 AM 78.8 °F - 59.0 °F 51% 30.07 in 10.0 mi East 3.5 mph - N/A   Unknown
12:15 PM 78.8 °F - 59.0 °F 51% 30.06 in 10.0 mi East 4.6 mph - N/A   Unknown
12:35 PM 78.8 °F - 57.2 °F 47% 30.06 in 10.0 mi SSE 3.5 mph - N/A   Unknown
12:55 PM 78.8 °F - 57.2 °F 47% 30.06 in 10.0 mi Calm Calm - N/A   Unknown
1:15 PM 80.6 °F 81.1 °F 59.0 °F 48% 30.05 in 10.0 mi SE 3.5 mph - N/A   Unknown
1:35 PM 80.6 °F 81.1 °F 59.0 °F 48% 30.04 in 10.0 mi ENE 4.6 mph - N/A   Unknown
1:55 PM 80.6 °F 81.1 °F 59.0 °F 48% 30.03 in 10.0 mi East 4.6 mph - N/A   Unknown
2:15 PM 82.4 °F 82.5 °F 59.0 °F 45% 30.02 in 10.0 mi NE 3.5 mph - N/A   Unknown
2:35 PM 82.4 °F 82.5 °F 59.0 °F 45% 30.01 in 10.0 mi East 5.8 mph - N/A   Unknown
2:55 PM 82.4 °F 82.9 °F 60.8 °F 48% 30.00 in 10.0 mi SE 6.9 mph - N/A   Unknown
3:15 PM 82.4 °F 82.9 °F 60.8 °F 48% 30.00 in 10.0 mi Calm Calm - N/A   Unknown
3:35 PM 82.4 °F 82.5 °F 59.0 °F 45% 29.99 in 10.0 mi NE 3.5 mph - N/A   Unknown
3:55 PM 84.2 °F 83.8 °F 59.0 °F 42% 29.98 in 10.0 mi Calm Calm - N/A   Unknown
4:15 PM 84.2 °F 83.8 °F 59.0 °F 42% 29.98 in 10.0 mi Calm Calm - N/A   Unknown
4:35 PM 86.0 °F 86.1 °F 60.8 °F 43% 29.97 in 10.0 mi Calm Calm - N/A   Unknown
4:55 PM 84.2 °F 84.4 °F 60.8 °F 45% 29.97 in 10.0 mi Calm Calm - N/A   Unknown
5:15 PM 84.2 °F 83.8 °F 59.0 °F 42% 29.97 in 10.0 mi ENE 3.5 mph - N/A   Unknown
5:35 PM 86.0 °F 86.1 °F 60.8 °F 43% 29.97 in 10.0 mi NE 3.5 mph - N/A   Unknown
5:55 PM 84.2 °F 83.8 °F 59.0 °F 42% 29.96 in 10.0 mi NE 3.5 mph - N/A   Unknown
6:15 PM 84.2 °F 84.4 °F 60.8 °F 45% 29.96 in 10.0 mi NE 4.6 mph - N/A   Unknown
6:35 PM 82.4 °F 82.9 °F 60.8 °F 48% 29.97 in 10.0 mi Calm Calm - N/A   Unknown
6:55 PM 82.4 °F 82.9 °F 60.8 °F 48% 29.96 in 10.0 mi NE 3.5 mph - N/A   Unknown
7:15 PM 80.6 °F 81.8 °F 62.6 °F 54% 29.97 in 10.0 mi NNE 3.5 mph - N/A   Unknown
7:35 PM 78.8 °F - 59.0 °F 51% 29.97 in 10.0 mi NNE 3.5 mph - N/A   Unknown
7:55 PM 77.0 °F - 62.6 °F 61% 29.98 in 10.0 mi North 3.5 mph - N/A   Unknown
8:15 PM 77.0 °F - 62.6 °F 61% 29.98 in 10.0 mi Calm Calm - N/A   Unknown
8:35 PM 73.4 °F - 62.6 °F 69% 29.98 in 10.0 mi North 3.5 mph - N/A   Unknown
8:55 PM 73.4 °F - 60.8 °F 65% 29.99 in 10.0 mi Calm Calm - N/A   Unknown
9:15 PM 71.6 °F - 62.6 °F 73% 30.00 in 10.0 mi Calm Calm - N/A   Unknown
9:35 PM 71.6 °F - 62.6 °F 73% 30.00 in 10.0 mi North 3.5 mph - N/A   Unknown
9:55 PM 71.6 °F - 60.8 °F 69% 30.00 in 10.0 mi Calm Calm - N/A   Unknown
10:15 PM 71.6 °F - 59.0 °F 64% 30.00 in 10.0 mi Calm Calm - N/A   Unknown
10:35 PM 71.6 °F - 60.8 °F 69% 30.00 in 10.0 mi Calm Calm - N/A   Unknown
10:55 PM 71.6 °F - 57.2 °F 60% 30.00 in 10.0 mi Calm Calm - N/A   Unknown
11:15 PM 71.6 °F - 59.0 °F 64% 30.01 in 10.0 mi Calm Calm - N/A   Unknown
11:35 PM 69.8 °F - 59.0 °F 68% 30.01 in 10.0 mi Calm Calm - N/A   Unknown
11:55 PM 68.0 °F - 59.0 °F 73% 30.01 in 10.0 mi Calm Calm - N/A   Unknown